Tracking 28790 objects as of 19-Apr-2024
HD Live streaming from Space Station
objects crossing your sky now

FENGYUN 1C DEB

Track FENGYUN 1C DEB now!
10-day predictions


NORAD ID: 30306
Int'l Code: 1999-025ZT
Perigee: 736.7 km
Apogee: 912.7 km
Inclination: 98.6 °
Period: 101.2 minutes
Semi major axis: 7195 km
RCS: 0.0194 m2 (small)
Launch date: May 10, 1999
Source: People's Republic of China (PRC)
Launch site: Taiyaun Space Center, China (TSC)

Note: This is SATELLITE DEBRIS
Your satellite tracking list
Your tracking list is empty




NASA's NSSDC Master Catalog

Two Line Element Set (TLE):
1 30306U 99025ZT  24110.06036983  .00006337  00000-0  26574-2 0  9995
2 30306  98.6369 155.5535 0122330 314.9307  44.1997 14.22313504891065
Source of the keplerian elements: AFSPC